Location: Julian California
(33.0790°N, 116.6010°W)
Time: 13:40:40
(UTC-07:00)

OAO 1 Rocket - Pass Details

Date: 12 July 2018
Orbit: 744 x 755 km, 35.0° (Epoch: 22 July)

Event Time Altitude Azimuth Distance (km) Brightness Sun altitude
Rises 22:20:15 0° 249° (WSW) 3,163 7.9 -24.2°
Reaches altitude 10° 22:22:42 10° 248° (WSW) 2,242 7.1 -24.5°
Enters shadow 22:27:44 75° 192° (SSW) 768 4.3 -25.2°
